Hoolehua, HI

1:36 PM HST on February 25, 2017 (GMT -1000)
Molokai

Weather History for PHMK - May, 2013

Change the Weather History Date:

Thursday, May 23, 2013

  Actual Average Record
Temperature  
Mean Temperature 73 °F -  
Max Temperature 82 °F 82 °F 86 °F (1967)
Min Temperature 64 °F 67 °F 59 °F (1986)
Cooling Degree Days 8    
Growing Degree Days 23 (Base 50)    
Moisture  
Dew Point 69 °F    
Average Humidity 84    
Maximum Humidity 100    
Minimum Humidity 67    
Precipitation  
Precipitation 0.00 in - - ()
Sea Level Pressure  
Sea Level Pressure 30.05 in    
Wind  
Wind Speed 5 mph (NNE)    
Max Wind Speed 17 mph    
Max Gust Speed 30 mph    
Visibility 9 miles    
Events      
Averages and records for this station are not official NWS values.
T = Trace of Precipitation, MM = Missing Value Source: NWS Daily Summary

Daily Weather History Graph

Daily Weather History Graph

Search for Another Location

Airport or City:

Trip Planner

Search our weather history database for the weather conditions in past years. The results will help you decide how hot, cold, wet, or windy it might be!

Date:

Astronomy

May. 23, 2013 Rise Set
Actual Time 5:47 AM HST 7:02 PM HST
Civil Twilight 5:23 AM HST 7:27 PM HST
Nautical Twilight 4:54 AM HST 7:55 PM HST
Astronomical Twilight 4:25 AM HST 8:25 PM HST
Moon 5:55 PM HST (5/23) 4:30 AM HST (5/23)
Length of Visible Light 14h 03m
Length of Day
13h 15m
Waxing Gibbous, 98% of the Moon is Illuminated
May 23
Waxing Gibbous
May 24
Full
May 31
Last Quarter
Jun 8
New
Jun 16
First Quarter

Hourly Weather History & Observations

Time (HST) Temp. Heat Index Dew Point Humidity Pressure Visibility Wind Dir Wind Speed Gust Speed Precip Events Conditions
12:54 AM 68.0 °F - 66.9 °F 96% 30.06 in 9.0 mi Calm Calm - N/A   Clear
1:54 AM 64.9 °F - 64.9 °F 100% 30.05 in 8.0 mi Calm Calm - N/A   Clear
2:54 AM 68.0 °F - 68.0 °F 100% 30.04 in 9.0 mi Calm Calm - N/A   Clear
3:54 AM 66.0 °F - 66.0 °F 100% 30.04 in 7.0 mi Calm Calm - N/A   Clear
4:54 AM 66.0 °F - 66.0 °F 100% 30.04 in 8.0 mi Calm Calm - N/A   Clear
5:54 AM 64.9 °F - 64.9 °F 100% 30.05 in 6.0 mi Calm Calm - N/A   Clear
6:54 AM 70.0 °F - 68.0 °F 93% 30.06 in 9.0 mi Calm Calm - N/A   Clear
7:54 AM 77.0 °F - 70.0 °F 79% 30.08 in 10.0 mi Calm Calm - N/A   Clear
8:54 AM 78.1 °F - 70.0 °F 76% 30.09 in 10.0 mi North 5.8 mph - N/A   Partly Cloudy
9:54 AM 79.0 °F - 72.0 °F 79% 30.08 in 10.0 mi NNE 12.7 mph 19.6 mph N/A   Scattered Clouds
10:54 AM 81.0 °F 84.9 °F 71.1 °F 72% 30.07 in 10.0 mi NNE 12.7 mph 23.0 mph N/A   Scattered Clouds
11:54 AM 82.9 °F 87.5 °F 71.1 °F 67% 30.06 in 10.0 mi NE 12.7 mph 21.9 mph N/A   Scattered Clouds
12:54 PM 82.0 °F 86.3 °F 71.1 °F 69% 30.04 in 10.0 mi NNE 12.7 mph 21.9 mph N/A   Scattered Clouds
1:54 PM 82.0 °F 86.3 °F 71.1 °F 69% 30.03 in 10.0 mi NE 17.3 mph 26.5 mph N/A   Scattered Clouds
2:54 PM 82.0 °F 86.3 °F 71.1 °F 69% 30.01 in 10.0 mi NNE 16.1 mph 29.9 mph N/A   Scattered Clouds
3:54 PM 80.1 °F 83.2 °F 70.0 °F 71% 30.02 in 10.0 mi NE 13.8 mph 24.2 mph N/A   Partly Cloudy
4:54 PM 79.0 °F - 70.0 °F 74% 30.01 in 10.0 mi ENE 9.2 mph 19.6 mph N/A   Partly Cloudy
5:54 PM 75.9 °F - 69.1 °F 79% 30.02 in 10.0 mi NE 11.5 mph 19.6 mph N/A   Partly Cloudy
6:54 PM 73.9 °F - 69.1 °F 85% 30.03 in 10.0 mi NNE 11.5 mph 17.3 mph N/A   Clear
7:54 PM 73.0 °F - 70.0 °F 90% 30.04 in 10.0 mi NNE 6.9 mph - N/A   Clear
8:54 PM 73.0 °F - 69.1 °F 87% 30.06 in 10.0 mi NE 5.8 mph - N/A   Clear
9:54 PM 73.0 °F - 69.1 °F 87% 30.07 in 10.0 mi NNE 10.4 mph - N/A   Clear
10:54 PM 72.0 °F - 69.1 °F 91% 30.09 in 10.0 mi NNE 8.1 mph - N/A   Clear
11:54 PM 71.1 °F - 68.0 °F 90% 30.08 in 10.0 mi NNE 4.6 mph - N/A   Clear